Regional Weather Roundup
Issued by NWS Charleston, SC

Current Version | Previous Version | Graphics & Text | Print | Product List | Glossary On
Versions: 1 2 3 4 5 6 7 8 9 10 11 12 13 14 15 16 17 18 19 20 21 22 23 24 25 26 27 28 29 30 31 32 33 34 35 36 37 38 39 40 41 42 43 44 45 46 47 48 49 50
000
ASUS42 KCHS 280212
RWRCHS

REGIONAL WEATHER ROUNDUP
NATIONAL WEATHER SERVICE CHARLESTON SC
1000 PM EDT THU JUL 27 2017

NOTE: "FAIR" INDICATES FEW OR NO CLOUDS BELOW 12,000 FEET WITH NO
SIGNIFICANT WEATHER AND/OR OBSTRUCTIONS TO VISIBILITY.

NOT ALL STATIONS ARE QUALITY CONTROLLED. USE DATA WITH CAUTION...
ESPECIALLY DEWPOINT OBSERVATIONS.

SCZ027-030-031-034>040-042>050-280300-
...SOUTHEAST SOUTH CAROLINA...

CITY           SKY/WX    TMP DP  RH WIND       PRES   REMARKS
N CHARLESTON   MOCLDY    78  74  87 S3        29.96R
WATERFRONT PRK   N/A     81  77  88 SW6       29.94R
JOHNS ISLAND   FAIR      81  77  89 S8        29.97R
PINOPOLIS        N/A     81  75  83 VRB2      29.89R
MONCKS CORNER  FAIR      77  73  88 SW5       29.97R
SUMMERVILLE    FAIR      77  73  88 CALM      29.98R
BEAUFORT MCAS  CLOUDY    81  77  88 CALM      29.96R
BEAUFORT ARPT  FAIR      79  73  83 S3        29.96R
HILTON HEAD IS MOCLDY    79  75  89 CALM      29.97R
WALTERBORO     NOT AVBL
ALLENDALE      NOT AVBL

...SOUTHERN MIDLANDS AND PEE DEE...

CITY           SKY/WX    TMP DP  RH WIND       PRES   REMARKS
GEORGETOWN     FAIR      75  75 100 CALM      29.97R
KINGSTREE      FAIR      77  73  88 S3        29.96R
ORANGEBURG     CLOUDY    78  73  84 SW5       29.97R
BARNWELL       FAIR      82  77  83 SE7       29.97R HX  91
AIKEN          FAIR      79  73  83 CALM      30.00S
MANNING        FAIR      81  73  78 SW13G20   29.97R
COLUMBIA       CLOUDY    83  75  77 SW3       29.94R HX  90
SUMTER         CLOUDY    80  74  81 S8        29.93R
FLORENCE       CLOUDY    79  75  87 S6        29.96R
MYRTLE BEACH   CLEAR     81  75  83 S9        29.97R
N MYRTLE BEACH CLOUDY    80  74  81 SW8       29.96R

$$

GAZ063-065-086>088-099>101-113>116-118-119-134>141-150-280300-
...SOUTHEAST GEORGIA...

CITY           SKY/WX    TMP DP  RH WIND       PRES   REMARKS
SAVANNAH ARPT  MOCLDY    79  74  84 S7        29.96R
HUNTER AAF     CLOUDY    78  75  92 CALM      29.94R
FORT STEWART   CLOUDY    78  75  91 CALM      29.94R
STATESBORO     PTCLDY    79  76  90 CALM      29.96R
SYLVANIA       CLOUDY    78  78  99 CALM      29.97R
CLAXTON        FAIR      78  76  95 CALM      29.97R

...CSRA...CENTRAL AND FAR SOUTHEAST GEORGIA...

CITY           SKY/WX    TMP DP  RH WIND       PRES   REMARKS
THOMSON        PTCLDY    79  76  90 CALM      30.01S
AUGUSTA-BUSH   MOCLDY    80  76  87 S3        29.95R
AUGUSTA-DANIEL CLOUDY    85  70  60 CALM      29.97R
SWAINSBORO     FAIR      79  77  94 CALM      29.97R
VIDALIA        MOCLDY    81  77  89 CALM      29.97R
EASTMAN        FAIR      81  77  86 CALM      29.98S
HAZLEHURST     FAIR      80  80  97 CALM      29.95S HX  90
ALMA           PTCLDY    79  76  90 CALM      29.96R
WAYCROSS       PTCLDY    81  81 100 CALM      29.96S HX  92
JESUP          NOT AVBL
BAXLEY         FAIR      81  81 100 CALM      29.96S HX  91
BRUNSWICK      CLOUDY    77  77 100 CALM      29.97R
SAINT SIMONS   CLOUDY    79  75  87 S3        29.96R

$$

SCZ027-028-034-036>038-045-046-048>050-GAZ119-141-280300-
...LAKE AND SUPPLEMENTAL COASTAL OBSERVATIONS...

STATION/POSITION TIME  TEMP    WIND        PRES    WAVE   SWELL
                       AIR SEA DIR/SP/G            HT/PER HT/PER/DIR
                 (UTC) (F)     (DEG/KT/KT) (MB)    (FT/S) (FT/S/D)
WINYAH BAY       NOT AVBL
LAKE MURRAY      0120   86     160/  5/  7 1013.2
ACE BASIN NERRS  NOT AVBL
FORT PULASKI     0148   80 84  200/  1/  2 1014.8R
SAPELO ISLAND    0100   79        CALM     1014.0

$$

ANZ835-935-AMZ111-154-330-350-352-354-370-450-454-472-280300-
...C-MAN AND BUOY OBSERVATIONS...

STATION/POSITION TIME  TEMP    WIND        PRES    WAVE   SWELL
                       AIR SEA DIR/SP/G            HT/PER HT/PER/DIR
                 (UTC) (F)     (DEG/KT/KT) (MB)    (FT/S) (FT/S/D)
BUOY 41004       0150   82 83  200/ 12/ 14 1014.4R   2/ 8   2/120/ 8
BUOY 41008       0150   81 81  210/  6/  8 1014.1R   2/ 4   2/150/ 5
FOLLY BEACH CMAN 0200   82     180/ 11/ 12 1015.4R
CAPERS NEARSHORE 0108   79 84  230/ 12/ 16 1014.3R
FRIPP NEARSHORE  0108   82 84  180/ 16/ 19 1013.7R


STATION/POSITION TIME  TEMP    WIND        PRES    WAVE   SWELL
                       AIR SEA DIR/SP/G            HT/PER HT/PER/DIR
                 (UTC) (F)     (DEG/KT/KT) (MB)    (FT/S) (FT/S/D)
5E ST. MARYS GA  0130      79                N/A     2/ 4
FRYING PAN BUOY  0150   82 83  210/  8/ 10 1014.5R   2/ 8   2/ 90/ 8
BUOY 41025       0150   82 83  180/ 14/ 17 1014.4F   2/ 8   2/ 70/ 8
CAPE LOOKOUT NC  0200   81     170/ 13/ 14 1014.3S
BUOY 41002       0150   82 83  250/  6/  6 1015.7S   3/ 7   3/ 60/ 7
BUOY 41010       0150   85 85  160/  8/ 12 1015.5R   2/ 6   2/110/ 6
ST AUGUSTINE FL  0200   80 78  140/  5/  6 1014.8R


$$



USA.gov is the U.S. government's official web portal to all federal, state and local government web resources and services.